Time,TemperatureF,DewpointF,PressureIn,WindDirection,WindDirectionDegrees,WindSpeedMPH,WindSpeedGustMPH,Humidity,HourlyPrecipIn,Conditions,Clouds,dailyrainin,SolarRadiationWatts/m^2,SoftwareType,DateUTC
2013-06-04 00:05:00,60.0,50.9,30.02,West,277,1.0,3.0,72,0.00,,,0.00,0,Wunderground v.1.15,2013-06-03 22:05:00,
2013-06-04 00:20:00,60.0,50.9,30.02,West,278,2.0,2.0,72,0.00,,,0.00,0,Wunderground v.1.15,2013-06-03 22:20:00,
2013-06-04 00:35:00,59.9,50.8,30.02,West,277,0.0,1.0,72,0.00,,,0.00,0,Wunderground v.1.15,2013-06-03 22:35:00,
2013-06-04 00:45:00,59.5,50.5,30.02,West,278,1.0,2.0,72,0.00,,,0.00,0,Wunderground v.1.15,2013-06-03 22:45:00,
2013-06-04 00:56:00,59.2,50.2,30.01,West,278,2.0,2.0,72,0.00,,,0.00,0,Wunderground v.1.15,2013-06-03 22:56:00,
2013-06-04 01:05:00,59.0,50.0,30.01,West,278,0.0,0.0,72,0.00,,,0.00,0,Wunderground v.1.15,2013-06-03 23:05:00,
2013-06-04 01:15:00,59.0,50.0,30.01,West,277,0.0,1.0,72,0.00,,,0.00,0,Wunderground v.1.15,2013-06-03 23:15:00,
2013-06-04 01:21:00,59.0,50.4,30.01,West,278,2.0,2.0,73,0.00,,,0.00,0,Wunderground v.1.15,2013-06-03 23:21:00,
2013-06-04 01:30:00,58.9,50.3,30.01,West,278,2.0,2.0,73,0.00,,,0.00,0,Wunderground v.1.15,2013-06-03 23:30:00,
2013-06-04 01:40:00,58.9,50.3,30.01,West,277,1.0,1.0,73,0.00,,,0.00,0,Wunderground v.1.15,2013-06-03 23:40:00,
2013-06-04 01:50:00,58.8,50.2,30.01,West,278,0.0,0.0,73,0.00,,,0.00,0,Wunderground v.1.15,2013-06-03 23:50:00,
2013-06-04 02:05:00,58.5,50.2,30.01,West,278,2.0,2.0,74,0.00,,,0.00,0,Wunderground v.1.15,2013-06-04 00:05:00,
2013-06-04 02:15:00,58.2,50.0,30.00,West,277,2.0,2.0,74,0.00,,,0.00,0,Wunderground v.1.15,2013-06-04 00:15:00,
2013-06-04 02:30:00,58.1,49.9,30.00,WNW,282,2.0,2.0,74,0.00,,,0.00,0,Wunderground v.1.15,2013-06-04 00:30:00,
2013-06-04 02:40:00,57.9,49.7,30.00,WNW,282,2.0,3.0,74,0.00,,,0.00,0,Wunderground v.1.15,2013-06-04 00:40:00,
2013-06-04 02:46:00,57.9,50.0,30.00,WNW,289,2.0,3.0,75,0.00,,,0.00,0,Wunderground v.1.15,2013-06-04 00:46:00,
2013-06-04 03:05:00,57.6,49.7,29.99,West,264,2.0,2.0,75,0.00,,,0.00,0,Wunderground v.1.15,2013-06-04 01:05:00,
2013-06-04 03:15:00,57.4,49.9,29.99,West,281,2.0,4.0,76,0.00,,,0.00,0,Wunderground v.1.15,2013-06-04 01:15:00,
2013-06-04 03:26:00,57.3,49.8,29.99,WNW,288,1.0,1.0,76,0.00,,,0.00,0,Wunderground v.1.15,2013-06-04 01:26:00,
2013-06-04 03:36:00,57.3,49.8,29.99,NW,306,0.0,0.0,76,0.00,,,0.00,0,Wunderground v.1.15,2013-06-04 01:36:00,
2013-06-04 03:45:00,57.3,49.8,29.99,NW,306,0.0,0.0,76,0.00,,,0.00,0,Wunderground v.1.15,2013-06-04 01:45:00,
2013-06-04 03:55:00,57.2,49.7,29.98,NW,306,0.0,0.0,76,0.00,,,0.00,0,Wunderground v.1.15,2013-06-04 01:55:00,
2013-06-04 04:10:00,56.9,49.4,29.98,NW,306,0.0,0.0,76,0.00,,,0.00,0,Wunderground v.1.15,2013-06-04 02:10:00,
2013-06-04 04:21:00,56.5,49.0,29.98,NW,306,1.0,2.0,76,0.00,,,0.00,0,Wunderground v.1.15,2013-06-04 02:21:00,
2013-06-04 04:35:00,55.9,48.8,29.98,NW,304,2.0,2.0,77,0.00,,,0.00,0,Wunderground v.1.15,2013-06-04 02:35:00,
2013-06-04 05:40:00,55.1,48.0,29.98,NW,305,1.0,1.0,77,0.00,,,0.00,0,Wunderground v.1.15,2013-06-04 03:40:00,
2013-06-04 05:51:00,55.1,48.0,29.97,NW,305,0.0,1.0,77,0.00,,,0.00,0,Wunderground v.1.15,2013-06-04 03:51:00,
2013-06-04 06:10:00,55.0,48.3,29.98,NW,305,1.0,1.0,78,0.00,,,0.00,0,Wunderground v.1.15,2013-06-04 04:10:00,
2013-06-04 06:20:00,55.1,48.4,29.97,NW,304,2.0,2.0,78,0.00,,,0.00,0,Wunderground v.1.15,2013-06-04 04:20:00,
2013-06-04 06:25:00,55.2,48.1,29.97,NW,305,1.0,2.0,77,0.00,,,0.00,5,Wunderground v.1.15,2013-06-04 04:25:00,
2013-06-04 06:31:00,55.3,48.2,29.97,NW,305,0.0,1.0,77,0.00,,,0.00,9,Wunderground v.1.15,2013-06-04 04:31:00,
2013-06-04 06:35:00,55.3,48.2,29.97,NW,304,0.0,1.0,77,0.00,,,0.00,11,Wunderground v.1.15,2013-06-04 04:35:00,
2013-06-04 06:45:00,55.1,48.0,29.97,NW,304,1.0,2.0,77,0.00,,,0.00,16,Wunderground v.1.15,2013-06-04 04:45:00,
2013-06-04 06:55:00,55.1,48.0,29.98,NW,305,1.0,1.0,77,0.00,,,0.00,53,Wunderground v.1.15,2013-06-04 04:55:00,
2013-06-04 07:10:00,55.3,48.2,29.98,NW,305,0.0,0.0,77,0.00,,,0.00,95,Wunderground v.1.15,2013-06-04 05:10:00,
2013-06-04 07:20:00,55.8,49.0,29.98,NW,304,0.0,0.0,78,0.00,,,0.00,120,Wunderground v.1.15,2013-06-04 05:20:00,
2013-06-04 07:30:00,56.5,49.7,29.98,NW,305,0.0,0.0,78,0.00,,,0.00,146,Wunderground v.1.15,2013-06-04 05:30:00,
2013-06-04 07:40:00,57.2,50.4,29.98,NW,305,0.0,0.0,78,0.00,,,0.00,176,Wunderground v.1.15,2013-06-04 05:40:00,
2013-06-04 07:45:00,57.6,50.8,29.98,NW,305,0.0,0.0,78,0.00,,,0.00,190,Wunderground v.1.15,2013-06-04 05:45:00,
2013-06-04 07:51:00,58.1,51.3,29.98,NW,304,0.0,1.0,78,0.00,,,0.00,206,Wunderground v.1.15,2013-06-04 05:51:00,
2013-06-04 08:05:00,59.8,52.2,29.98,NNE,17,1.0,1.0,76,0.00,,,0.00,250,Wunderground v.1.15,2013-06-04 06:05:00,
2013-06-04 08:16:00,60.9,52.9,29.98,NNE,17,0.0,0.0,75,0.00,,,0.00,278,Wunderground v.1.15,2013-06-04 06:16:00,
2013-06-04 08:30:00,62.8,54.0,29.98,NNE,17,0.0,1.0,73,0.00,,,0.00,327,Wunderground v.1.15,2013-06-04 06:30:00,
2013-06-04 08:40:00,64.0,53.6,29.98,NNE,17,1.0,1.0,69,0.00,,,0.00,362,Wunderground v.1.15,2013-06-04 06:40:00,
2013-06-04 08:46:00,64.7,53.5,29.98,NNE,17,1.0,1.0,67,0.00,,,0.00,374,Wunderground v.1.15,2013-06-04 06:46:00,
2013-06-04 08:55:00,66.1,53.6,29.98,NNE,17,1.0,1.0,64,0.00,,,0.00,410,Wunderground v.1.15,2013-06-04 06:55:00,
2013-06-04 09:05:00,67.4,53.0,29.98,NNE,17,1.0,1.0,60,0.00,,,0.00,438,Wunderground v.1.15,2013-06-04 07:05:00,
2013-06-04 09:15:00,68.3,52.5,29.98,NNE,17,1.0,1.0,57,0.00,,,0.00,476,Wunderground v.1.15,2013-06-04 07:15:00,
2013-06-04 09:25:00,69.5,52.1,29.98,NE,46,1.0,1.0,54,0.00,,,0.00,506,Wunderground v.1.15,2013-06-04 07:25:00,
2013-06-04 09:30:00,70.0,51.6,29.99,ENE,66,2.0,2.0,52,0.00,,,0.00,524,Wunderground v.1.15,2013-06-04 07:30:00,
2013-06-04 09:40:00,70.5,52.0,29.99,ENE,69,1.0,2.0,52,0.00,,,0.00,550,Wunderground v.1.15,2013-06-04 07:40:00,
2013-06-04 09:50:00,71.3,52.2,29.99,East,79,2.0,2.0,51,0.00,,,0.00,580,Wunderground v.1.15,2013-06-04 07:50:00,
2013-06-04 10:05:00,72.6,51.2,29.99,SSE,163,2.0,2.0,47,0.00,,,0.00,626,Wunderground v.1.15,2013-06-04 08:05:00,
2013-06-04 10:15:00,73.1,51.1,29.99,ESE,123,2.0,5.0,46,0.00,,,0.00,656,Wunderground v.1.15,2013-06-04 08:15:00,
2013-06-04 10:25:00,73.1,50.5,29.99,SE,137,3.0,4.0,45,0.00,,,0.00,680,Wunderground v.1.15,2013-06-04 08:25:00,
2013-06-04 10:36:00,73.8,50.5,29.98,SE,144,2.0,2.0,44,0.00,,,0.00,703,Wunderground v.1.15,2013-06-04 08:36:00,
2013-06-04 10:50:00,74.4,51.1,29.99,ESE,105,2.0,2.0,44,0.00,,,0.00,737,Wunderground v.1.15,2013-06-04 08:50:00,
2013-06-04 11:05:00,75.6,51.5,29.99,SE,144,2.0,6.0,43,0.00,,,0.00,775,Wunderground v.1.15,2013-06-04 09:05:00,
2013-06-04 11:15:00,75.5,50.8,29.99,WSW,255,3.0,3.0,42,0.00,,,0.00,796,Wunderground v.1.15,2013-06-04 09:15:00,
2013-06-04 11:25:00,75.3,51.3,29.99,West,272,3.0,3.0,43,0.00,,,0.00,819,Wunderground v.1.15,2013-06-04 09:25:00,
2013-06-04 11:35:00,75.5,51.4,29.99,SE,130,3.0,4.0,43,0.00,,,0.00,840,Wunderground v.1.15,2013-06-04 09:35:00,
2013-06-04 11:45:00,76.1,52.0,29.99,South,183,3.0,3.0,43,0.00,,,0.00,860,Wunderground v.1.15,2013-06-04 09:45:00,
2013-06-04 12:05:00,77.0,52.1,29.99,WSW,240,3.0,3.0,42,0.00,,,0.00,889,Wunderground v.1.15,2013-06-04 10:05:00,
2013-06-04 12:15:00,77.3,52.4,29.99,SSW,211,4.0,4.0,42,0.00,,,0.00,909,Wunderground v.1.15,2013-06-04 10:15:00,
2013-06-04 12:25:00,77.8,52.2,29.99,WNW,292,3.0,3.0,41,0.00,,,0.00,918,Wunderground v.1.15,2013-06-04 10:25:00,
2013-06-04 12:36:00,77.9,52.3,29.98,ESE,111,4.0,4.0,41,0.00,,,0.00,930,Wunderground v.1.15,2013-06-04 10:36:00,
2013-06-04 12:50:00,78.2,51.9,29.98,SSE,157,3.0,4.0,40,0.00,,,0.00,947,Wunderground v.1.15,2013-06-04 10:50:00,
2013-06-04 13:05:00,77.9,51.6,29.98,SSE,163,4.0,5.0,40,0.00,,,0.00,958,Wunderground v.1.15,2013-06-04 11:05:00,
2013-06-04 13:16:00,77.9,51.6,29.98,SSW,193,4.0,6.0,40,0.00,,,0.00,969,Wunderground v.1.15,2013-06-04 11:16:00,
2013-06-04 13:30:00,77.8,52.2,29.97,SW,217,5.0,5.0,41,0.00,,,0.00,972,Wunderground v.1.15,2013-06-04 11:30:00,
2013-06-04 13:45:00,77.6,52.0,29.98,SSW,195,6.0,6.0,41,0.00,,,0.00,979,Wunderground v.1.15,2013-06-04 11:45:00,
2013-06-04 13:55:00,77.6,52.0,29.98,South,190,5.0,6.0,41,0.00,,,0.00,1037,Wunderground v.1.15,2013-06-04 11:55:00,
2013-06-04 14:05:00,78.7,52.3,29.97,WSW,257,3.0,7.0,40,0.00,,,0.00,1078,Wunderground v.1.15,2013-06-04 12:05:00,
2013-06-04 14:16:00,78.8,52.4,29.97,South,176,5.0,6.0,40,0.00,,,0.00,1020,Wunderground v.1.15,2013-06-04 12:16:00,
2013-06-04 14:25:00,78.3,52.0,29.97,SE,145,5.0,6.0,40,0.00,,,0.00,956,Wunderground v.1.15,2013-06-04 12:25:00,
2013-06-04 14:35:00,78.3,52.0,29.97,SE,145,4.0,4.0,40,0.00,,,0.00,1044,Wunderground v.1.15,2013-06-04 12:35:00,
2013-06-04 14:45:00,78.5,51.5,29.97,SW,233,4.0,7.0,39,0.00,,,0.00,724,Wunderground v.1.15,2013-06-04 12:45:00,
2013-06-04 14:55:00,78.5,51.5,29.97,South,174,5.0,5.0,39,0.00,,,0.00,1025,Wunderground v.1.15,2013-06-04 12:55:00,
2013-06-04 15:10:00,78.2,51.2,29.96,SSW,200,5.0,5.0,39,0.00,,,0.00,925,Wunderground v.1.15,2013-06-04 13:10:00,
2013-06-04 15:20:00,78.4,51.4,29.96,WSW,245,4.0,5.0,39,0.00,,,0.00,912,Wunderground v.1.15,2013-06-04 13:20:00,
2013-06-04 15:35:00,78.6,50.9,29.96,SSE,163,4.0,4.0,38,0.00,,,0.00,893,Wunderground v.1.15,2013-06-04 13:35:00,
2013-06-04 15:50:00,78.2,51.2,29.96,SW,222,5.0,5.0,39,0.00,,,0.00,872,Wunderground v.1.15,2013-06-04 13:50:00,
2013-06-04 16:05:00,77.6,50.0,29.96,SW,220,5.0,6.0,38,0.00,,,0.00,842,Wunderground v.1.15,2013-06-04 14:05:00,
2013-06-04 16:20:00,76.6,51.1,29.96,SW,232,5.0,5.0,41,0.00,,,0.00,810,Wunderground v.1.15,2013-06-04 14:20:00,
2013-06-04 16:30:00,76.3,50.9,29.96,South,191,5.0,6.0,41,0.00,,,0.00,789,Wunderground v.1.15,2013-06-04 14:30:00,
2013-06-04 16:45:00,76.5,49.7,29.96,SW,225,5.0,7.0,39,0.00,,,0.00,754,Wunderground v.1.15,2013-06-04 14:45:00,
2013-06-04 16:56:00,76.3,50.2,29.96,SSW,200,5.0,8.0,40,0.00,,,0.00,729,Wunderground v.1.15,2013-06-04 14:56:00,
2013-06-04 17:05:00,75.8,51.1,29.96,South,184,5.0,5.0,42,0.00,,,0.00,703,Wunderground v.1.15,2013-06-04 15:05:00,
2013-06-04 17:16:00,75.2,50.5,29.95,SW,220,6.0,6.0,42,0.00,,,0.00,675,Wunderground v.1.15,2013-06-04 15:16:00,
2013-06-04 17:25:00,74.7,50.1,29.95,SSW,200,5.0,7.0,42,0.00,,,0.00,650,Wunderground v.1.15,2013-06-04 15:25:00,
2013-06-04 17:30:00,74.4,49.8,29.95,SW,233,5.0,5.0,42,0.00,,,0.00,636,Wunderground v.1.15,2013-06-04 15:30:00,
2013-06-04 17:41:00,74.4,50.4,29.95,SSW,192,4.0,4.0,43,0.00,,,0.00,606,Wunderground v.1.15,2013-06-04 15:41:00,
2013-06-04 17:55:00,74.4,50.4,29.95,SSW,194,4.0,4.0,43,0.00,,,0.00,559,Wunderground v.1.15,2013-06-04 15:55:00,
2013-06-04 18:10:00,73.8,49.9,29.95,SSW,207,4.0,5.0,43,0.00,,,0.00,515,Wunderground v.1.15,2013-06-04 16:10:00,
2013-06-04 18:20:00,73.7,50.4,29.95,South,171,4.0,5.0,44,0.00,,,0.00,483,Wunderground v.1.15,2013-06-04 16:20:00,
2013-06-04 18:31:00,73.4,50.2,29.94,SW,215,5.0,6.0,44,0.00,,,0.00,448,Wunderground v.1.15,2013-06-04 16:31:00,
2013-06-04 18:40:00,73.1,49.3,29.94,SW,223,5.0,6.0,43,0.00,,,0.00,418,Wunderground v.1.15,2013-06-04 16:40:00,
2013-06-04 18:55:00,73.0,51.0,29.94,SSW,192,3.0,5.0,46,0.00,,,0.00,369,Wunderground v.1.15,2013-06-04 16:55:00,
2013-06-04 19:10:00,72.7,51.3,29.94,SW,234,4.0,4.0,47,0.00,,,0.00,318,Wunderground v.1.15,2013-06-04 17:10:00,
2013-06-04 19:20:00,72.5,51.1,29.94,SSW,195,4.0,4.0,47,0.00,,,0.00,287,Wunderground v.1.15,2013-06-04 17:20:00,
2013-06-04 19:30:00,72.2,50.8,29.94,South,180,3.0,3.0,47,0.00,,,0.00,255,Wunderground v.1.15,2013-06-04 17:30:00,
2013-06-04 19:45:00,71.9,51.1,29.93,SSW,211,3.0,4.0,48,0.00,,,0.00,207,Wunderground v.1.15,2013-06-04 17:45:00,
2013-06-04 19:55:00,71.7,51.5,29.93,SW,230,3.0,3.0,49,0.00,,,0.00,179,Wunderground v.1.15,2013-06-04 17:55:00,
2013-06-04 20:11:00,71.3,51.7,29.94,SW,224,2.0,3.0,50,0.00,,,0.00,118,Wunderground v.1.15,2013-06-04 18:11:00,
2013-06-04 20:25:00,70.7,51.7,29.94,South,182,2.0,2.0,51,0.00,,,0.00,23,Wunderground v.1.15,2013-06-04 18:25:00,
2013-06-04 20:40:00,69.9,51.5,29.94,South,187,1.0,1.0,52,0.00,,,0.00,19,Wunderground v.1.15,2013-06-04 18:40:00,
2013-06-04 20:51:00,69.2,51.8,29.94,SSW,198,2.0,2.0,54,0.00,,,0.00,14,Wunderground v.1.15,2013-06-04 18:51:00,
2013-06-04 21:05:00,67.9,51.6,29.94,WSW,250,2.0,2.0,56,0.00,,,0.00,7,Wunderground v.1.15,2013-06-04 19:05:00,
2013-06-04 21:20:00,66.6,51.4,29.95,WSW,241,2.0,2.0,58,0.00,,,0.00,0,Wunderground v.1.15,2013-06-04 19:20:00,
2013-06-04 21:35:00,65.9,51.2,29.95,WSW,241,1.0,1.0,59,0.00,,,0.00,0,Wunderground v.1.15,2013-06-04 19:35:00,
2013-06-04 21:46:00,65.5,51.2,29.96,WSW,241,1.0,1.0,60,0.00,,,0.00,0,Wunderground v.1.15,2013-06-04 19:46:00,
2013-06-04 22:05:00,64.5,50.7,29.97,WSW,242,1.0,1.0,61,0.00,,,0.00,0,Wunderground v.1.15,2013-06-04 20:05:00,
2013-06-04 22:16:00,64.2,50.5,29.97,WSW,242,1.0,3.0,61,0.00,,,0.00,0,Wunderground v.1.15,2013-06-04 20:16:00,
2013-06-04 22:25:00,63.7,50.4,29.97,WNW,284,2.0,4.0,62,0.00,,,0.00,0,Wunderground v.1.15,2013-06-04 20:25:00,
2013-06-04 22:35:00,63.3,50.1,29.97,WNW,283,1.0,2.0,62,0.00,,,0.00,0,Wunderground v.1.15,2013-06-04 20:35:00,
2013-06-04 22:46:00,62.8,50.0,29.97,WNW,283,2.0,2.0,63,0.00,,,0.00,0,Wunderground v.1.15,2013-06-04 20:46:00,
2013-06-04 22:55:00,62.6,50.2,29.97,WNW,302,2.0,2.0,64,0.00,,,0.00,0,Wunderground v.1.15,2013-06-04 20:55:00,
2013-06-04 23:05:00,62.6,50.7,29.97,WNW,302,2.0,2.0,65,0.00,,,0.00,0,Wunderground v.1.15,2013-06-04 21:05:00,
2013-06-04 23:16:00,62.5,51.0,29.97,WNW,302,1.0,1.0,66,0.00,,,0.00,0,Wunderground v.1.15,2013-06-04 21:16:00,
2013-06-04 23:26:00,62.3,50.8,29.98,WNW,302,1.0,2.0,66,0.00,,,0.00,0,Wunderground v.1.15,2013-06-04 21:26:00,
2013-06-04 23:40:00,61.8,50.7,29.98,WNW,302,1.0,1.0,67,0.00,,,0.00,0,Wunderground v.1.15,2013-06-04 21:40:00,
2013-06-04 23:55:00,61.4,51.1,29.97,WNW,282,2.0,2.0,69,0.00,,,0.00,0,Wunderground v.1.15,2013-06-04 21:55:00,